Kailua, HI (96734)

2:46 PM HST on March 27, 2017 (GMT -1000)
Kailua Estates | | Change Station

Elev 7 ft 21.40 °N, 157.73 °W | Updated 31 seconds ago

Partly Cloudy
Partly Cloudy
85.1 °F
Feels Like 90 °F
N
3.7
Wind Variable Wind from East

Today
High -- | Low -- °F
--% Chance of Precip.
Yesterday
High -- | Low -- °F
Precip. -- in
Pressure 30.08 in
Visibility 7.0 miles
Clouds Mostly Cloudy 2900 ft
Mostly Cloudy 3500 ft
Overcast 4500 ft
Heat Index 90 °F
Dew Point 71 °F
Humidity 62%
Rainfall 0.00 in
Snow Depth Not available.
6:28 AM 6:44 PM
Waning Crescent, 0% visible
METAR PHNG 272257Z 07008KT 7SM BKN029 BKN035 OVC045 27/20 A3010 RMK SLP186 T02720200
Pressure 30.08 in
Visibility 7.0 miles
Clouds Mostly Cloudy 2900 ft
Mostly Cloudy 3500 ft
Overcast 4500 ft
Heat Index 90 °F
Dew Point 71 °F
Humidity 62%
Rainfall 0.00 in
Snow Depth Not available.
6:28 AM 6:44 PM
Waning Crescent, 0% visible
METAR PHNG 272257Z 07008KT 7SM BKN029 BKN035 OVC045 27/20 A3010 RMK SLP186 T02720200

Get Severe Weather Alerts

Thanks for signing up!

Be on the lookout for a verification email in your inbox.

You'll start receiving the daily forecast at 8 AM.

×

10-Day Weather Forecast

Almanac

Astronomy

Mar. 27, 2017 Rise Set
Actual Time
Civil Twilight
Nautical Twilight
Astronomical Twilight
Moon
Length of Visible Light
Length of Day
Tomorrow will be .
, % of the Moon is Illuminated

Today's Extremes

State Highs State Lows

Community

WunderPhotos

Upload Photos

1,962,540 photos uploaded!

WunderBlog® & News

Nearby

Air Quality

  Air Quality AQ Index Pollutant
Not available.

Snow Depth

Station Depth Elevation

Earthquake Activity

City Distance Mag. Time & Date
Minimum magnitude displayed is 2.5.

Earthquake Activity

City Distance Mag. Time & Date
Minimum magnitude displayed is 2.5.

Coastal Water Temperatures

Place Temperature

Stations

Nearby Weather Stations

Station Location Temp. Windchill Dew Point Humidity Wind Precip. Elev Updated Type
                   

Watches & Warnings

There are currently no watches in effect.